VELOX 1

导读

VELOX-1是新加坡南洋理工大学学生团队研发的3U立方体纳卫星,于2014年6月30日发射升空。作为新加坡学生自主研制的技术验证卫星,它承载多项新技术验证任务,验证了自研展开机构、光学延伸管等关键组件设计方案。其成功入轨并完成地面通信与核心载荷任务,为南洋理工大学后续微型卫星项目积累了宝贵飞行经验,也标志着新加坡在微小卫星研制领域取得重要进展。

Basic Information
目录编号:
40057
目录名称:
VELOX 1
国际标识:
2014-034E
轨道中心:
EARTH
卫星名称:
VELOX 1
卫星全名:
--
卫星状态:
在轨 (已飞行4370 天)
发射日期:
2014-06-30 UTC
国别 :
新加坡 (SG)
星等 :
--
Orbit Information
数据来源 国际轨道数据 AOE轨道数据
星历时间 2026-06-17T12:36:23+0800
4小时前
查看轨道信息
2026-06-11T03:00:00+0800
6天前
查看轨道信息
半长轴 6951.588km 6951.779km
偏心率 0.0006439 0.0006375
轨道倾角 98.254° 98.255°
近地点辐角 274.083° 303.626°
升交点赤经 73.196° 66.433°
平近点角 85.966° 125.545°
近地点 568.974km 569.21km
远地点 577.928km 578.074km
周期 96.136分钟 96.140分钟
每日圈数 14.978792 14.978174
Detailed Information
使用方式:
暂无
2D Orbit Map
3D Orbit Map
Orbit Altitude Analysis Chart
Orbit Inclination Analysis Chart
Orbit Comprehensive Analysis Chart
View Comprehensive Chart